Location: Newark
(13.6797°N, 8.5297°E)
Time: 13:27:18
(UTC+00:00)

SR - Pass Details

Date: 27 January 2020
Orbit: 575 x 880 km, 66.7° (Epoch: 24 February)

Event Time Altitude Azimuth Distance (km) Brightness Sun altitude
Rises 18:50:06 0° 167° (SSE) 3,232 ? -21.0°
Reaches altitude 10° 18:53:08 10° 148° (SSE) 2,362 ? -21.7°
Enters shadow 18:53:45 12° 143° (SE) 2,225 ? -21.8°
Maximum altitude 18:56:50 19° 105° (ESE) 1,892 - -22.5°
Drops below altitude 10° 19:00:40 10° 63° (ENE) 2,473 - -23.4°
Sets 19:03:56 0° 46° (NE) 3,441 - -24.2°
